Home > Weather > Adak > Past weeks

Flag for USA Past Weather in Adak, Alaska, USA — Yesterday and Last 2 Weeks

Now
46 °F

Overcast.


Feels Like: 40 °F
Forecast: 40 / 47 °F
Wind: 14 mph from South

Location: Adak

Current Time: May 26, 2016 at 5:23:55 PM

Latest Report: May 26, 2016 at 4:56 PM


Visibility: 10 mi

Pressure: 29.78 "Hg

Humidity: 62%

Dew Point: 34 °F

Location of AdakLocation

Past Weather in Adak — Graph

°F

Adak Temperature Yesterday

Maximum temperature yesterday: 48 °F (at 3:36 PM)
Minimum temperature yesterday: 43 °F (at 12:16 AM)
Average temperature yesterday: 45 °F

High & Low Weather Summary for the Past Weeks

 TemperatureHumidityPressure
High52 °F (May 22, 2:56 PM)81% (May 12, 4:56 AM)30.33 "Hg (May 12, 4:56 AM)
Low30 °F (May 17, 5:16 AM)46% (May 19, 4:16 PM)29.66 "Hg (May 26, 12:56 AM)
Average42 °F68%30.05 "Hg
* Reported May 11 4:16 PM — May 26 4:16 PM, Adak, Weather by CustomWeather, © 2016

Note: Actual official high and low records may vary slightly from our data, if they occured in-between our weather recording intervals... More about our weather records

Advertising

Adak Weather History for the Previous 24 Hours

Scroll right to see more
 ConditionsComfort  
Time TempWeatherWind HumidityBarometerVisibility
4:16 PM
Thu, May 26
46 °FMostly cloudy.15 mph66%29.77 "Hg10 mi
3:56 PM48 °FCloudy.17 mph62%29.77 "Hg10 mi
3:36 PM48 °FCloudy.16 mph62%29.77 "Hg10 mi
3:16 PM46 °FCloudy.15 mph66%29.76 "Hg10 mi
2:56 PM46 °FOvercast.14 mph66%29.76 "Hg10 mi
2:36 PM45 °FMostly cloudy.14 mph71%29.76 "Hg10 mi
2:16 PM46 °FMostly cloudy.20 mph66%29.76 "Hg10 mi
1:56 PM46 °FMostly cloudy.14 mph71%29.75 "Hg9 mi
1:36 PM46 °FMostly cloudy.23 mph71%29.74 "Hg5 mi
1:16 PM45 °FMostly cloudy.21 mph71%29.74 "Hg4 mi
12:56 PM45 °FMostly cloudy.23 mph71%29.74 "Hg3 mi
12:36 PM45 °FMostly cloudy.17 mph71%29.74 "Hg7 mi
12:16 PM45 °FMostly cloudy.20 mph71%29.74 "Hg7 mi
11:56 AM45 °FMostly cloudy.18 mph71%29.73 "Hg7 mi
11:36 AM45 °FMore clouds than sun.20 mph71%29.72 "Hg10 mi
11:16 AM45 °FCloudy.20 mph71%29.71 "Hg10 mi
10:56 AM43 °FCloudy.21 mph71%29.72 "Hg9 mi
10:36 AM45 °FCloudy.20 mph66%29.71 "Hg10 mi
10:16 AM45 °FMostly cloudy.20 mph66%29.71 "Hg9 mi
9:56 AM45 °FMostly cloudy.14 mph66%29.71 "Hg10 mi
9:36 AM45 °FMostly cloudy.16 mph61%29.70 "Hg10 mi
9:16 AM45 °FMostly cloudy.15 mph66%29.70 "Hg10 mi
8:56 AM43 °FMore clouds than sun.17 mph71%29.70 "Hg10 mi
8:36 AM43 °FOvercast.16 mph61%29.69 "Hg10 mi
8:16 AM43 °FMostly cloudy.15 mph61%29.69 "Hg10 mi
7:56 AM43 °FMostly cloudy.15 mph61%29.68 "Hg10 mi
7:36 AM41 °FMostly cloudy.10 mph66%29.68 "Hg10 mi
7:16 AM41 °FMore clouds than sun.17 mph70%29.68 "Hg9 mi
6:56 AM41 °FBroken clouds.17 mph70%29.67 "Hg10 mi
6:36 AM41 °FOvercast.16 mph70%29.67 "Hg5 mi
6:16 AM41 °FMostly cloudy.14 mph70%29.66 "Hg10 mi
5:56 AM41 °FOvercast.15 mph70%29.66 "Hg10 mi
5:36 AM43 °FMostly cloudy.22 mph66%29.66 "Hg10 mi
5:16 AM43 °FOvercast.20 mph66%29.66 "Hg8 mi
4:56 AM43 °FOvercast.21 mph66%29.66 "Hg10 mi
4:36 AM43 °FMostly cloudy.21 mph71%29.66 "Hg8 mi
4:16 AM43 °FOvercast.22 mph71%29.66 "Hg10 mi
3:56 AM43 °FMostly cloudy.20 mph71%29.67 "Hg10 mi
3:36 AM43 °FOvercast.20 mph71%29.66 "Hg10 mi
3:16 AM43 °FOvercast.16 mph71%29.66 "Hg9 mi
2:56 AM43 °FMostly cloudy.20 mph71%29.66 "Hg3 mi
2:36 AM43 °FMostly cloudy.18 mph71%29.66 "Hg7 mi
2:16 AM43 °FMostly cloudy.20 mph71%29.66 "Hg10 mi
1:56 AM43 °FOvercast.17 mph71%29.66 "Hg9 mi
1:36 AM43 °FMostly cloudy.15 mph71%29.66 "Hg5 mi
1:16 AM43 °FOvercast.22 mph71%29.66 "Hg9 mi
12:56 AM43 °FOvercast.20 mph71%29.66 "Hg10 mi
12:36 AM43 °FOvercast.25 mph71%29.67 "Hg10 mi
12:16 AM43 °FMostly cloudy.18 mph71%29.67 "Hg10 mi
11:56 PM
Wed, May 25
43 °FMostly cloudy.21 mph71%29.67 "Hg10 mi
11:36 PM43 °FOvercast.15 mph71%29.67 "Hg10 mi
10:56 PM43 °FOvercast.18 mph71%29.68 "Hg5 mi
10:36 PM45 °FOvercast.20 mph66%29.67 "Hg10 mi
10:16 PM45 °FOvercast.12 mph66%29.67 "Hg10 mi
9:56 PM45 °FOvercast.18 mph66%29.67 "Hg10 mi
9:36 PM45 °FOvercast.13 mph66%29.67 "Hg10 mi
9:16 PM45 °FOvercast.16 mph66%29.68 "Hg10 mi
8:56 PM45 °FOvercast.18 mph66%29.68 "Hg10 mi
8:36 PM45 °FOvercast.15 mph66%29.68 "Hg10 mi
8:16 PM45 °FOvercast.15 mph71%29.68 "Hg10 mi
7:56 PM45 °FMostly cloudy.14 mph71%29.68 "Hg10 mi
7:36 PM45 °FMostly cloudy.13 mph71%29.68 "Hg10 mi
7:16 PM45 °FMostly cloudy.10 mph76%29.68 "Hg10 mi
6:56 PM45 °FMostly cloudy.17 mph76%29.68 "Hg10 mi
6:36 PM46 °FMostly cloudy.14 mph71%29.68 "Hg9 mi
6:16 PM46 °FMostly cloudy.20 mph71%29.68 "Hg4 mi
5:56 PM46 °FMostly cloudy.25 mph76%29.68 "Hg5 mi
5:36 PM46 °FCloudy.16 mph76%29.68 "Hg5 mi
5:16 PM48 °FCloudy.23 mph71%29.68 "Hg5 mi
Weather by CustomWeather, © 2016

See weather overviewHow to use our weather pages